Year,Month,Day,Hour,Minute,Value (Times are PST for windspeed in km/hr)
2018,07,03,00,00,0.00
2018,07,03,00,01,0.00
2018,07,03,00,02,0.00
2018,07,03,00,03,0.00
2018,07,03,00,04,0.00
2018,07,03,00,05,0.00
2018,07,03,00,06,0.80
2018,07,03,00,07,3.80
2018,07,03,00,08,4.30
2018,07,03,00,09,4.60
2018,07,03,00,10,3.00
2018,07,03,00,11,2.00
2018,07,03,00,12,0.30
2018,07,03,00,13,0.00
2018,07,03,00,14,0.00
2018,07,03,00,15,1.60
2018,07,03,00,16,0.00
2018,07,03,00,17,0.00
2018,07,03,00,18,0.00
2018,07,03,00,19,1.80
2018,07,03,00,20,1.90
2018,07,03,00,21,1.80
2018,07,03,00,22,1.00
2018,07,03,00,23,0.00
2018,07,03,00,24,0.10
2018,07,03,00,25,0.90
2018,07,03,00,26,1.30
2018,07,03,00,27,0.00
2018,07,03,00,28,0.00
2018,07,03,00,29,0.00
2018,07,03,00,30,0.00
2018,07,03,00,31,0.00
2018,07,03,00,32,0.00
2018,07,03,00,33,0.00
2018,07,03,00,34,0.00
2018,07,03,00,35,0.00
2018,07,03,00,36,0.00
2018,07,03,00,37,0.10
2018,07,03,00,38,0.00
2018,07,03,00,39,0.00
2018,07,03,00,40,0.70
2018,07,03,00,41,2.20
2018,07,03,00,42,1.10
2018,07,03,00,43,0.00
2018,07,03,00,44,0.00
2018,07,03,00,45,0.00
2018,07,03,00,46,0.00
2018,07,03,00,47,0.00
2018,07,03,00,48,0.60
2018,07,03,00,49,0.40
2018,07,03,00,50,2.30
2018,07,03,00,51,2.80
2018,07,03,00,52,3.30
2018,07,03,00,53,0.30
2018,07,03,00,54,0.10
2018,07,03,00,55,0.00
2018,07,03,00,56,0.70
2018,07,03,00,57,4.30
2018,07,03,00,58,2.90
2018,07,03,00,59,0.40
2018,07,03,01,00,0.00
2018,07,03,01,01,0.00
2018,07,03,01,02,2.10
2018,07,03,01,03,2.60
2018,07,03,01,04,2.80
2018,07,03,01,05,2.20
2018,07,03,01,06,3.10
2018,07,03,01,07,3.00
2018,07,03,01,08,0.40
2018,07,03,01,09,0.00
2018,07,03,01,10,4.30
2018,07,03,01,11,3.60
2018,07,03,01,12,0.50
2018,07,03,01,13,0.30
2018,07,03,01,14,1.10
2018,07,03,01,15,1.50
2018,07,03,01,16,0.80
2018,07,03,01,17,2.00
2018,07,03,01,18,3.00
2018,07,03,01,19,2.90
2018,07,03,01,20,2.30
2018,07,03,01,21,2.10
2018,07,03,01,22,3.10
2018,07,03,01,23,3.10
2018,07,03,01,24,4.20
2018,07,03,01,25,5.60
2018,07,03,01,26,0.50
2018,07,03,01,27,1.20
2018,07,03,01,28,0.70
2018,07,03,01,29,0.60
2018,07,03,01,30,1.20
2018,07,03,01,31,1.50
2018,07,03,01,32,0.70
2018,07,03,01,33,2.30
2018,07,03,01,34,1.20
2018,07,03,01,35,1.40
2018,07,03,01,36,2.00
2018,07,03,01,37,2.00
2018,07,03,01,38,2.20
2018,07,03,01,39,2.20
2018,07,03,01,40,2.20
2018,07,03,01,41,2.40
2018,07,03,01,42,1.10
2018,07,03,01,43,0.90
2018,07,03,01,44,2.70
2018,07,03,01,45,0.20
2018,07,03,01,46,0.80
2018,07,03,01,47,0.00
2018,07,03,01,48,0.00
2018,07,03,01,49,0.00
2018,07,03,01,50,1.00
2018,07,03,01,51,0.60
2018,07,03,01,52,1.70
2018,07,03,01,53,1.70
2018,07,03,01,54,2.20
2018,07,03,01,55,2.30
2018,07,03,01,56,2.30
2018,07,03,01,57,1.90
2018,07,03,01,58,1.70
2018,07,03,01,59,1.50
2018,07,03,02,00,1.70
2018,07,03,02,01,2.50
2018,07,03,02,02,0.20
2018,07,03,02,03,0.10
2018,07,03,02,04,0.00
2018,07,03,02,05,0.00
2018,07,03,02,06,0.70
2018,07,03,02,07,0.20
2018,07,03,02,08,0.00
2018,07,03,02,09,0.60
2018,07,03,02,10,0.00
2018,07,03,02,11,0.10
2018,07,03,02,12,0.00
2018,07,03,02,13,0.00
2018,07,03,02,14,0.10
2018,07,03,02,15,0.00
2018,07,03,02,16,0.00
2018,07,03,02,17,0.00
2018,07,03,02,18,0.00
2018,07,03,02,19,0.00
2018,07,03,02,20,0.60
2018,07,03,02,21,2.00
2018,07,03,02,22,0.30
2018,07,03,02,23,0.00
2018,07,03,02,24,0.00
2018,07,03,02,25,0.00
2018,07,03,02,26,0.00
2018,07,03,02,27,0.10
2018,07,03,02,28,0.90
2018,07,03,02,29,0.00
2018,07,03,02,30,0.00
2018,07,03,02,31,0.00
2018,07,03,02,32,0.00
2018,07,03,02,33,0.00
2018,07,03,02,34,0.30
2018,07,03,02,35,0.00
2018,07,03,02,36,0.00
2018,07,03,02,37,0.00
2018,07,03,02,38,0.00
2018,07,03,02,39,0.00
2018,07,03,02,40,0.00
2018,07,03,02,41,0.00
2018,07,03,02,42,0.20
2018,07,03,02,43,0.00
2018,07,03,02,44,0.60
2018,07,03,02,45,0.20
2018,07,03,02,46,0.30
2018,07,03,02,47,0.00
2018,07,03,02,48,0.00
2018,07,03,02,49,0.00
2018,07,03,02,50,0.00
2018,07,03,02,51,0.00
2018,07,03,02,52,0.00
2018,07,03,02,53,0.00
2018,07,03,02,54,0.00
2018,07,03,02,55,0.00
2018,07,03,02,56,0.10
2018,07,03,02,57,0.20
2018,07,03,02,58,0.00
2018,07,03,02,59,0.20
2018,07,03,03,00,2.30
2018,07,03,03,01,1.10
2018,07,03,03,02,0.10
2018,07,03,03,03,0.00
2018,07,03,03,04,0.00
2018,07,03,03,05,0.00
2018,07,03,03,06,0.00
2018,07,03,03,07,0.00
2018,07,03,03,08,0.00
2018,07,03,03,09,0.00
2018,07,03,03,10,0.00
2018,07,03,03,11,0.00
2018,07,03,03,12,0.00
2018,07,03,03,13,0.00
2018,07,03,03,14,0.10
2018,07,03,03,15,0.00
2018,07,03,03,16,0.20
2018,07,03,03,17,0.20
2018,07,03,03,18,1.60
2018,07,03,03,19,1.40
2018,07,03,03,20,0.50
2018,07,03,03,21,1.80
2018,07,03,03,22,1.80
2018,07,03,03,23,1.40
2018,07,03,03,24,1.10
2018,07,03,03,25,1.20
2018,07,03,03,26,1.20
2018,07,03,03,27,0.10
2018,07,03,03,28,1.50
2018,07,03,03,29,1.70
2018,07,03,03,30,0.60
2018,07,03,03,31,0.00
2018,07,03,03,32,1.20
2018,07,03,03,33,0.20
2018,07,03,03,34,1.50
2018,07,03,03,35,2.00
2018,07,03,03,36,2.00
2018,07,03,03,37,2.20
2018,07,03,03,38,1.10
2018,07,03,03,39,1.80
2018,07,03,03,40,0.90
2018,07,03,03,41,0.50
2018,07,03,03,42,1.10
2018,07,03,03,43,1.30
2018,07,03,03,44,0.50
2018,07,03,03,45,0.00
2018,07,03,03,46,1.10
2018,07,03,03,47,1.30
2018,07,03,03,48,0.60
2018,07,03,03,49,0.10
2018,07,03,03,50,0.00
2018,07,03,03,51,0.00
2018,07,03,03,52,0.00
2018,07,03,03,53,0.00
2018,07,03,03,54,0.00
2018,07,03,03,55,0.30
2018,07,03,03,56,1.70
2018,07,03,03,57,1.80
2018,07,03,03,58,1.50
2018,07,03,03,59,0.20
2018,07,03,04,00,0.20
2018,07,03,04,01,0.50
2018,07,03,04,02,0.70
2018,07,03,04,03,2.70
2018,07,03,04,04,1.40
2018,07,03,04,05,1.00
2018,07,03,04,06,1.10
2018,07,03,04,07,2.50
2018,07,03,04,08,2.30
2018,07,03,04,09,0.70
2018,07,03,04,10,0.50
2018,07,03,04,11,0.10
2018,07,03,04,12,0.20
2018,07,03,04,13,0.40
2018,07,03,04,14,0.20
2018,07,03,04,15,0.00
2018,07,03,04,16,0.50
2018,07,03,04,17,1.50
2018,07,03,04,18,0.60
2018,07,03,04,19,0.00
2018,07,03,04,20,0.10
2018,07,03,04,21,0.00
2018,07,03,04,22,0.90
2018,07,03,04,23,0.70
2018,07,03,04,24,0.90
2018,07,03,04,25,1.40
2018,07,03,04,26,1.50
2018,07,03,04,27,0.10
2018,07,03,04,28,0.30
2018,07,03,04,29,0.00
2018,07,03,04,30,0.00
2018,07,03,04,31,0.00
2018,07,03,04,32,0.10
2018,07,03,04,33,0.20
2018,07,03,04,34,1.40
2018,07,03,04,35,0.00
2018,07,03,04,36,0.00
2018,07,03,04,37,0.10
2018,07,03,04,38,0.10
2018,07,03,04,39,1.60
2018,07,03,04,40,0.20
2018,07,03,04,41,2.00
2018,07,03,04,42,1.50
2018,07,03,04,43,0.10
2018,07,03,04,44,0.00
2018,07,03,04,45,0.00
2018,07,03,04,46,0.30
2018,07,03,04,47,0.00
2018,07,03,04,48,0.70
2018,07,03,04,49,1.90
2018,07,03,04,50,0.90
2018,07,03,04,51,0.20
2018,07,03,04,52,0.00
2018,07,03,04,53,0.70
2018,07,03,04,54,0.20
2018,07,03,04,55,0.00
2018,07,03,04,56,1.50
2018,07,03,04,57,0.90
2018,07,03,04,58,0.00
2018,07,03,04,59,0.00
2018,07,03,05,00,0.20
2018,07,03,05,01,0.20
2018,07,03,05,02,2.30
2018,07,03,05,03,1.80
2018,07,03,05,04,0.20
2018,07,03,05,05,1.70
2018,07,03,05,06,2.40
2018,07,03,05,07,3.00
2018,07,03,05,08,0.60
2018,07,03,05,09,0.30
2018,07,03,05,10,2.20
2018,07,03,05,11,0.70
2018,07,03,05,12,0.00
2018,07,03,05,13,2.30
2018,07,03,05,14,1.50
2018,07,03,05,15,0.30
2018,07,03,05,16,1.70
2018,07,03,05,17,0.00
2018,07,03,05,18,0.00
2018,07,03,05,19,0.00
2018,07,03,05,20,1.90
2018,07,03,05,21,0.80
2018,07,03,05,22,0.00
2018,07,03,05,23,2.70
2018,07,03,05,24,0.00
2018,07,03,05,25,0.00
2018,07,03,05,26,0.20
2018,07,03,05,27,1.60
2018,07,03,05,28,0.70
2018,07,03,05,29,0.00
2018,07,03,05,30,0.00
2018,07,03,05,31,1.10
2018,07,03,05,32,0.00
2018,07,03,05,33,1.30
2018,07,03,05,34,0.20
2018,07,03,05,35,1.80
2018,07,03,05,36,1.10
2018,07,03,05,37,0.00
2018,07,03,05,38,1.10
2018,07,03,05,39,1.20
2018,07,03,05,40,1.10
2018,07,03,05,41,1.40
2018,07,03,05,42,1.00
2018,07,03,05,43,0.80
2018,07,03,05,44,0.00
2018,07,03,05,45,1.10
2018,07,03,05,46,0.40
2018,07,03,05,47,0.00
2018,07,03,05,48,0.00
2018,07,03,05,49,0.00
2018,07,03,05,50,0.30
2018,07,03,05,51,0.00
2018,07,03,05,52,0.20
2018,07,03,05,53,0.10
2018,07,03,05,54,1.00
2018,07,03,05,55,2.10
2018,07,03,05,56,2.30
2018,07,03,05,57,1.30
2018,07,03,05,58,1.20
2018,07,03,05,59,0.40
2018,07,03,06,00,0.10
2018,07,03,06,01,0.00
2018,07,03,06,02,0.00
2018,07,03,06,03,0.10
2018,07,03,06,04,0.00
2018,07,03,06,05,0.00
2018,07,03,06,06,0.00
2018,07,03,06,07,0.00
2018,07,03,06,08,0.00
2018,07,03,06,09,0.00
2018,07,03,06,10,0.00
2018,07,03,06,11,0.00
2018,07,03,06,12,0.00
2018,07,03,06,13,0.00
2018,07,03,06,14,0.00
2018,07,03,06,15,0.00
2018,07,03,06,16,0.00
2018,07,03,06,17,0.00
2018,07,03,06,18,0.00
2018,07,03,06,19,0.00
2018,07,03,06,20,0.00
2018,07,03,06,21,0.00
2018,07,03,06,22,0.00
2018,07,03,06,23,0.20
2018,07,03,06,24,2.20
2018,07,03,06,25,4.20
2018,07,03,06,26,5.70
2018,07,03,06,27,6.50
2018,07,03,06,28,6.00
2018,07,03,06,29,4.50
2018,07,03,06,30,2.40
2018,07,03,06,31,2.60
2018,07,03,06,32,0.20
2018,07,03,06,33,0.00
2018,07,03,06,34,0.00
2018,07,03,06,35,0.00
2018,07,03,06,36,0.00
2018,07,03,06,37,0.00
2018,07,03,06,38,0.00
2018,07,03,06,39,0.00
2018,07,03,06,40,0.00
2018,07,03,06,41,0.00
2018,07,03,06,42,0.00
2018,07,03,06,43,0.00
2018,07,03,06,44,0.00
2018,07,03,06,45,0.00
2018,07,03,06,46,0.00
2018,07,03,06,47,0.00
2018,07,03,06,48,0.10
2018,07,03,06,49,0.00
2018,07,03,06,50,0.00
2018,07,03,06,51,0.20
2018,07,03,06,52,1.50
2018,07,03,06,53,0.20
2018,07,03,06,54,0.50
2018,07,03,06,55,1.50
2018,07,03,06,56,0.00
2018,07,03,06,57,0.00
2018,07,03,06,58,1.50
2018,07,03,06,59,4.20
2018,07,03,07,00,3.20
2018,07,03,07,01,4.20
2018,07,03,07,02,3.50
2018,07,03,07,03,4.70
2018,07,03,07,04,6.30
2018,07,03,07,05,5.50
2018,07,03,07,06,5.90
2018,07,03,07,07,4.20
2018,07,03,07,08,3.30
2018,07,03,07,09,3.50
2018,07,03,07,10,3.30
2018,07,03,07,11,3.10
2018,07,03,07,12,6.90
2018,07,03,07,13,4.50
2018,07,03,07,14,1.40
2018,07,03,07,15,1.50
2018,07,03,07,16,1.50
2018,07,03,07,17,4.80
2018,07,03,07,18,6.00
2018,07,03,07,19,3.60
2018,07,03,07,20,1.60
2018,07,03,07,21,2.40
2018,07,03,07,22,1.00
2018,07,03,07,23,2.00
2018,07,03,07,24,4.10
2018,07,03,07,25,1.30
2018,07,03,07,26,0.60
2018,07,03,07,27,3.10
2018,07,03,07,28,0.60
2018,07,03,07,29,0.00
2018,07,03,07,30,2.10
2018,07,03,07,31,0.70
2018,07,03,07,32,0.60
2018,07,03,07,33,3.50
2018,07,03,07,34,2.80
2018,07,03,07,35,1.70
2018,07,03,07,36,1.50
2018,07,03,07,37,2.50
2018,07,03,07,38,0.10
2018,07,03,07,39,0.30
2018,07,03,07,40,0.00
2018,07,03,07,41,0.40
2018,07,03,07,42,2.00
2018,07,03,07,43,0.60
2018,07,03,07,44,0.40
2018,07,03,07,45,1.20
2018,07,03,07,46,1.30
2018,07,03,07,47,1.70
2018,07,03,07,48,2.80
2018,07,03,07,49,3.10
2018,07,03,07,50,3.10
2018,07,03,07,51,4.00
2018,07,03,07,52,1.90
2018,07,03,07,53,1.80
2018,07,03,07,54,2.60
2018,07,03,07,55,7.20
2018,07,03,07,56,2.10
2018,07,03,07,57,1.30
2018,07,03,07,58,1.70
2018,07,03,07,59,2.60
2018,07,03,08,00,5.60
2018,07,03,08,01,5.10
2018,07,03,08,02,5.00
2018,07,03,08,03,6.40
2018,07,03,08,04,3.00
2018,07,03,08,05,2.30
2018,07,03,08,06,6.10
2018,07,03,08,07,4.50
2018,07,03,08,08,1.80
2018,07,03,08,09,2.10
2018,07,03,08,10,4.00
2018,07,03,08,11,3.30
2018,07,03,08,12,2.20
2018,07,03,08,13,6.90
2018,07,03,08,14,4.00
2018,07,03,08,15,3.80
2018,07,03,08,16,5.70
2018,07,03,08,17,6.70
2018,07,03,08,18,2.90
2018,07,03,08,19,1.50
2018,07,03,08,20,9.30
2018,07,03,08,21,9.90
2018,07,03,08,22,5.40
2018,07,03,08,23,1.00
2018,07,03,08,24,4.10
2018,07,03,08,25,2.70
2018,07,03,08,26,1.10
2018,07,03,08,27,1.10
2018,07,03,08,28,0.20
2018,07,03,08,29,2.40
2018,07,03,08,30,4.40
2018,07,03,08,31,4.70
2018,07,03,08,32,7.00
2018,07,03,08,33,5.80
2018,07,03,08,34,3.10
2018,07,03,08,35,1.90
2018,07,03,08,36,6.40
2018,07,03,08,37,5.60
2018,07,03,08,38,4.30
2018,07,03,08,39,5.70
2018,07,03,08,40,5.10
2018,07,03,08,41,6.40
2018,07,03,08,42,9.30
2018,07,03,08,43,9.40
2018,07,03,08,44,8.90
2018,07,03,08,45,6.30
2018,07,03,08,46,6.60
2018,07,03,08,47,8.60
2018,07,03,08,48,8.20
2018,07,03,08,49,8.50
2018,07,03,08,50,8.30
2018,07,03,08,51,6.40
2018,07,03,08,52,5.80
2018,07,03,08,53,5.10
2018,07,03,08,54,5.60
2018,07,03,08,55,7.70
2018,07,03,08,56,9.30
2018,07,03,08,57,7.70
2018,07,03,08,58,5.30
2018,07,03,08,59,5.60
2018,07,03,09,00,5.00
2018,07,03,09,01,7.70
2018,07,03,09,02,6.70
2018,07,03,09,03,7.10
2018,07,03,09,04,9.10
2018,07,03,09,05,9.60
2018,07,03,09,06,9.60
2018,07,03,09,07,8.40
2018,07,03,09,08,7.80
2018,07,03,09,09,8.20
2018,07,03,09,10,6.80
2018,07,03,09,11,8.20
2018,07,03,09,12,8.00
2018,07,03,09,13,7.60
2018,07,03,09,14,8.40
2018,07,03,09,15,8.10
2018,07,03,09,16,4.50
2018,07,03,09,17,6.30
2018,07,03,09,18,6.70
2018,07,03,09,19,8.30
2018,07,03,09,20,7.30
2018,07,03,09,21,6.80
2018,07,03,09,22,6.00
2018,07,03,09,23,5.90
2018,07,03,09,24,3.40
2018,07,03,09,25,5.80
2018,07,03,09,26,8.70
2018,07,03,09,27,6.80
2018,07,03,09,28,8.30
2018,07,03,09,29,9.60
2018,07,03,09,30,5.90
2018,07,03,09,31,4.40
2018,07,03,09,32,6.60
2018,07,03,09,33,5.60
2018,07,03,09,34,7.20
2018,07,03,09,35,6.90
2018,07,03,09,36,7.00
2018,07,03,09,37,8.20
2018,07,03,09,38,3.10
2018,07,03,09,39,5.30
2018,07,03,09,40,5.80
2018,07,03,09,41,6.50
2018,07,03,09,42,5.60
2018,07,03,09,43,7.20
2018,07,03,09,44,9.80
2018,07,03,09,45,9.90
2018,07,03,09,46,6.30
2018,07,03,09,47,4.60
2018,07,03,09,48,6.20
2018,07,03,09,49,3.90
2018,07,03,09,50,3.10
2018,07,03,09,51,9.40
2018,07,03,09,52,5.80
2018,07,03,09,53,5.30
2018,07,03,09,54,6.60
2018,07,03,09,55,7.10
2018,07,03,09,56,4.10
2018,07,03,09,57,1.80
2018,07,03,09,58,1.10
2018,07,03,09,59,4.70
2018,07,03,10,00,5.50
2018,07,03,10,01,6.00
2018,07,03,10,02,7.20
2018,07,03,10,03,6.80
2018,07,03,10,04,6.00
2018,07,03,10,05,5.80
2018,07,03,10,06,6.10
2018,07,03,10,07,4.00
2018,07,03,10,08,6.00
2018,07,03,10,09,5.70
2018,07,03,10,10,5.90
2018,07,03,10,11,4.60
2018,07,03,10,12,5.30
2018,07,03,10,13,7.60
2018,07,03,10,14,4.30
2018,07,03,10,15,5.60
2018,07,03,10,16,3.90
2018,07,03,10,17,6.80
2018,07,03,10,18,5.20
2018,07,03,10,19,7.10
2018,07,03,10,20,6.30
2018,07,03,10,21,8.70
2018,07,03,10,22,7.20
2018,07,03,10,23,7.20
2018,07,03,10,24,7.40
2018,07,03,10,25,9.40
2018,07,03,10,26,11.00
2018,07,03,10,27,7.60
2018,07,03,10,28,8.40
2018,07,03,10,29,8.30
2018,07,03,10,30,5.60
2018,07,03,10,31,8.70
2018,07,03,10,32,9.90
2018,07,03,10,33,10.70
2018,07,03,10,34,7.30
2018,07,03,10,35,6.20
2018,07,03,10,36,6.00
2018,07,03,10,37,7.20
2018,07,03,10,38,6.70
2018,07,03,10,39,10.10
2018,07,03,10,40,11.90
2018,07,03,10,41,8.70
2018,07,03,10,42,7.10
2018,07,03,10,43,4.90
2018,07,03,10,44,5.50
2018,07,03,10,45,6.00
2018,07,03,10,46,6.70
2018,07,03,10,47,9.20
2018,07,03,10,48,7.40
2018,07,03,10,49,7.20
2018,07,03,10,50,4.30
2018,07,03,10,51,8.00
2018,07,03,10,52,7.40
2018,07,03,10,53,5.30
2018,07,03,10,54,2.20
2018,07,03,10,55,5.80
2018,07,03,10,56,7.60
2018,07,03,10,57,6.90
2018,07,03,10,58,4.90
2018,07,03,10,59,6.00
2018,07,03,11,00,7.10
2018,07,03,11,01,5.20
2018,07,03,11,02,6.00
2018,07,03,11,03,11.50
2018,07,03,11,04,7.50
2018,07,03,11,05,6.40
2018,07,03,11,06,5.30
2018,07,03,11,07,4.00
2018,07,03,11,08,6.10
2018,07,03,11,09,5.60
2018,07,03,11,10,4.20
2018,07,03,11,11,6.40
2018,07,03,11,12,4.40
2018,07,03,11,13,4.80
2018,07,03,11,14,5.60
2018,07,03,11,15,7.90
2018,07,03,11,16,5.30
2018,07,03,11,17,2.70
2018,07,03,11,18,1.80
2018,07,03,11,19,6.60
2018,07,03,11,20,8.80
2018,07,03,11,21,5.20
2018,07,03,11,22,6.00
2018,07,03,11,23,7.40
2018,07,03,11,24,7.00
2018,07,03,11,25,6.70
2018,07,03,11,26,7.40
2018,07,03,11,27,6.10
2018,07,03,11,28,4.00
2018,07,03,11,29,2.70
2018,07,03,11,30,4.00
2018,07,03,11,31,7.40
2018,07,03,11,32,6.20
2018,07,03,11,33,3.80
2018,07,03,11,34,7.00
2018,07,03,11,35,7.50
2018,07,03,11,36,6.40
2018,07,03,11,37,4.10
2018,07,03,11,38,5.70
2018,07,03,11,39,5.50
2018,07,03,11,40,8.20
2018,07,03,11,41,9.50
2018,07,03,11,42,7.40
2018,07,03,11,43,10.60
2018,07,03,11,44,6.50
2018,07,03,11,45,8.00
2018,07,03,11,46,7.60
2018,07,03,11,47,6.90
2018,07,03,11,48,6.50
2018,07,03,11,49,4.40
2018,07,03,11,50,6.60
2018,07,03,11,51,7.90
2018,07,03,11,52,7.80
2018,07,03,11,53,2.90
2018,07,03,11,54,9.10
2018,07,03,11,55,7.00
2018,07,03,11,56,5.40
2018,07,03,11,57,7.10
2018,07,03,11,58,5.60
2018,07,03,11,59,7.80
2018,07,03,12,00,5.80
2018,07,03,12,01,5.70
2018,07,03,12,02,5.70
2018,07,03,12,03,5.90
2018,07,03,12,04,6.00
2018,07,03,12,05,6.40
2018,07,03,12,06,4.30
2018,07,03,12,07,5.60
2018,07,03,12,08,4.60
2018,07,03,12,09,6.30
2018,07,03,12,10,6.20
2018,07,03,12,11,6.80
2018,07,03,12,12,6.80
2018,07,03,12,13,5.50
2018,07,03,12,14,6.50
2018,07,03,12,15,6.60
2018,07,03,12,16,9.00
2018,07,03,12,17,8.50
2018,07,03,12,18,6.40
2018,07,03,12,19,7.60
2018,07,03,12,20,8.80
2018,07,03,12,21,5.10
2018,07,03,12,22,5.30
2018,07,03,12,23,6.70
2018,07,03,12,24,9.60
2018,07,03,12,25,9.40
2018,07,03,12,26,9.80
2018,07,03,12,27,10.80
2018,07,03,12,28,9.10
2018,07,03,12,29,9.30
2018,07,03,12,30,7.70
2018,07,03,12,31,8.30
2018,07,03,12,32,9.70
2018,07,03,12,33,10.10
2018,07,03,12,34,7.50
2018,07,03,12,35,9.10
2018,07,03,12,36,9.60
2018,07,03,12,37,8.10
2018,07,03,12,38,7.60
2018,07,03,12,39,10.80
2018,07,03,12,40,8.70
2018,07,03,12,41,11.20
2018,07,03,12,42,8.80
2018,07,03,12,43,8.30
2018,07,03,12,44,7.20
2018,07,03,12,45,8.10
2018,07,03,12,46,9.20
2018,07,03,12,47,8.10
2018,07,03,12,48,8.60
2018,07,03,12,49,10.20
2018,07,03,12,50,8.10
2018,07,03,12,51,5.50
2018,07,03,12,52,7.10
2018,07,03,12,53,6.10
2018,07,03,12,54,6.40
2018,07,03,12,55,8.90
2018,07,03,12,56,6.80
2018,07,03,12,57,5.80
2018,07,03,12,58,6.30
2018,07,03,12,59,7.40
2018,07,03,13,00,4.70
2018,07,03,13,01,8.80
2018,07,03,13,02,9.30
2018,07,03,13,03,8.60
2018,07,03,13,04,9.90
2018,07,03,13,05,8.20
2018,07,03,13,06,5.90
2018,07,03,13,07,4.00
2018,07,03,13,08,6.80
2018,07,03,13,09,3.20
2018,07,03,13,10,1.40
2018,07,03,13,11,7.00
2018,07,03,13,12,2.60
2018,07,03,13,13,6.40
2018,07,03,13,14,9.90
2018,07,03,13,15,7.70
2018,07,03,13,16,6.70
2018,07,03,13,17,10.80
2018,07,03,13,18,9.10
2018,07,03,13,19,8.40
2018,07,03,13,20,7.70
2018,07,03,13,21,6.80
2018,07,03,13,22,7.70
2018,07,03,13,23,6.30
2018,07,03,13,24,6.20
2018,07,03,13,25,5.00
2018,07,03,13,26,6.00
2018,07,03,13,27,7.20
2018,07,03,13,28,8.30
2018,07,03,13,29,7.80
2018,07,03,13,30,9.10
2018,07,03,13,31,9.80
2018,07,03,13,32,9.70
2018,07,03,13,33,9.70
2018,07,03,13,34,6.80
2018,07,03,13,35,10.10
2018,07,03,13,36,7.30
2018,07,03,13,37,6.80
2018,07,03,13,38,5.50
2018,07,03,13,39,2.50
2018,07,03,13,40,5.00
2018,07,03,13,41,8.10
2018,07,03,13,42,7.50
2018,07,03,13,43,7.40
2018,07,03,13,44,6.80
2018,07,03,13,45,6.10
2018,07,03,13,46,4.80
2018,07,03,13,47,8.80
2018,07,03,13,48,10.00
2018,07,03,13,49,9.20
2018,07,03,13,50,7.50
2018,07,03,13,51,9.10
2018,07,03,13,52,5.80
2018,07,03,13,53,8.50
2018,07,03,13,54,7.60
2018,07,03,13,55,5.20
2018,07,03,13,56,6.30
2018,07,03,13,57,5.70
2018,07,03,13,58,7.20
2018,07,03,13,59,7.70
2018,07,03,14,00,5.10
2018,07,03,14,01,4.50
2018,07,03,14,02,7.40
2018,07,03,14,03,6.30
2018,07,03,14,04,6.20
2018,07,03,14,05,8.10
2018,07,03,14,06,7.40
2018,07,03,14,07,4.30
2018,07,03,14,08,5.10
2018,07,03,14,09,7.10
2018,07,03,14,10,4.80
2018,07,03,14,11,7.20
2018,07,03,14,12,8.50
2018,07,03,14,13,6.40
2018,07,03,14,14,8.10
2018,07,03,14,15,7.40
2018,07,03,14,16,6.80
2018,07,03,14,17,8.00
2018,07,03,14,18,7.90
2018,07,03,14,19,11.20
2018,07,03,14,20,6.90
2018,07,03,14,21,8.20
2018,07,03,14,22,8.10
2018,07,03,14,23,2.10
2018,07,03,14,24,4.90
2018,07,03,14,25,4.80
2018,07,03,14,26,5.70
2018,07,03,14,27,6.60
2018,07,03,14,28,3.90
2018,07,03,14,29,8.60
2018,07,03,14,30,7.60
2018,07,03,14,31,8.80
2018,07,03,14,32,9.70
2018,07,03,14,33,9.60
2018,07,03,14,34,4.40
2018,07,03,14,35,7.30
2018,07,03,14,36,7.90
2018,07,03,14,37,6.20
2018,07,03,14,38,7.30
2018,07,03,14,39,8.50
2018,07,03,14,40,9.70
2018,07,03,14,41,10.30
2018,07,03,14,42,6.40
2018,07,03,14,43,4.30
2018,07,03,14,44,5.00
2018,07,03,14,45,7.50
2018,07,03,14,46,4.30
2018,07,03,14,47,4.90
2018,07,03,14,48,4.50
2018,07,03,14,49,4.80
2018,07,03,14,50,9.00
2018,07,03,14,51,7.40
2018,07,03,14,52,10.20
2018,07,03,14,53,9.40
2018,07,03,14,54,6.90
2018,07,03,14,55,4.20
2018,07,03,14,56,6.40
2018,07,03,14,57,7.70
2018,07,03,14,58,5.70
2018,07,03,14,59,6.40
2018,07,03,15,00,7.30
2018,07,03,15,01,8.60
2018,07,03,15,02,6.70
2018,07,03,15,03,2.80
2018,07,03,15,04,10.10
2018,07,03,15,05,7.30
2018,07,03,15,06,6.70
2018,07,03,15,07,5.90
2018,07,03,15,08,10.00
2018,07,03,15,09,10.10
2018,07,03,15,10,6.70
2018,07,03,15,11,8.40
2018,07,03,15,12,8.50
2018,07,03,15,13,4.50
2018,07,03,15,14,1.50
2018,07,03,15,15,5.20
2018,07,03,15,16,6.70
2018,07,03,15,17,5.90
2018,07,03,15,18,7.40
2018,07,03,15,19,8.00
2018,07,03,15,20,9.20
2018,07,03,15,21,10.00
2018,07,03,15,22,6.80
2018,07,03,15,23,7.20
2018,07,03,15,24,5.40
2018,07,03,15,25,7.30
2018,07,03,15,26,7.60
2018,07,03,15,27,3.70
2018,07,03,15,28,5.40
2018,07,03,15,29,9.10
2018,07,03,15,30,11.40
2018,07,03,15,31,10.00
2018,07,03,15,32,11.90
2018,07,03,15,33,10.10
2018,07,03,15,34,8.80
2018,07,03,15,35,10.30
2018,07,03,15,36,8.10
2018,07,03,15,37,5.10
2018,07,03,15,38,8.10
2018,07,03,15,39,4.80
2018,07,03,15,40,4.10
2018,07,03,15,41,6.30
2018,07,03,15,42,5.70
2018,07,03,15,43,4.70
2018,07,03,15,44,9.10
2018,07,03,15,45,8.70
2018,07,03,15,46,7.60
2018,07,03,15,47,4.90
2018,07,03,15,48,4.80
2018,07,03,15,49,2.10
2018,07,03,15,50,11.70
2018,07,03,15,51,10.40
2018,07,03,15,52,5.20
2018,07,03,15,53,3.30
2018,07,03,15,54,9.50
2018,07,03,15,55,7.80
2018,07,03,15,56,6.50
2018,07,03,15,57,8.90
2018,07,03,15,58,8.90
2018,07,03,15,59,6.70
2018,07,03,16,00,5.50
2018,07,03,16,01,4.30
2018,07,03,16,02,8.60
2018,07,03,16,03,8.10
2018,07,03,16,04,6.00
2018,07,03,16,05,7.80
2018,07,03,16,06,6.50
2018,07,03,16,07,6.00
2018,07,03,16,08,4.90
2018,07,03,16,09,6.30
2018,07,03,16,10,7.50
2018,07,03,16,11,6.60
2018,07,03,16,12,5.40
2018,07,03,16,13,2.50
2018,07,03,16,14,6.70
2018,07,03,16,15,6.90
2018,07,03,16,16,9.60
2018,07,03,16,17,9.30
2018,07,03,16,18,8.10
2018,07,03,16,19,6.10
2018,07,03,16,20,5.80
2018,07,03,16,21,9.50
2018,07,03,16,22,9.70
2018,07,03,16,23,8.00
2018,07,03,16,24,6.80
2018,07,03,16,25,6.20
2018,07,03,16,26,7.30
2018,07,03,16,27,6.40
2018,07,03,16,28,7.70
2018,07,03,16,29,7.50
2018,07,03,16,30,6.40
2018,07,03,16,31,4.20
2018,07,03,16,32,6.90
2018,07,03,16,33,7.80
2018,07,03,16,34,5.10
2018,07,03,16,35,6.80
2018,07,03,16,36,7.60
2018,07,03,16,37,8.70
2018,07,03,16,38,9.50
2018,07,03,16,39,3.90
2018,07,03,16,40,13.10
2018,07,03,16,41,8.90
2018,07,03,16,42,10.20
2018,07,03,16,43,6.10
2018,07,03,16,44,9.20
2018,07,03,16,45,10.90
2018,07,03,16,46,6.50
2018,07,03,16,47,6.40
2018,07,03,16,48,6.20
2018,07,03,16,49,9.90
2018,07,03,16,50,7.70
2018,07,03,16,51,6.40
2018,07,03,16,52,8.10
2018,07,03,16,53,7.30
2018,07,03,16,54,8.90
2018,07,03,16,55,6.10
2018,07,03,16,56,12.50
2018,07,03,16,57,7.10
2018,07,03,16,58,10.20
2018,07,03,16,59,6.90
2018,07,03,17,00,5.40
2018,07,03,17,01,6.40
2018,07,03,17,02,7.40
2018,07,03,17,03,8.10
2018,07,03,17,04,4.30
2018,07,03,17,05,6.00
2018,07,03,17,06,7.10
2018,07,03,17,07,4.10
2018,07,03,17,08,5.60
2018,07,03,17,09,9.20
2018,07,03,17,10,4.30
2018,07,03,17,11,2.20
2018,07,03,17,12,5.40
2018,07,03,17,13,8.00
2018,07,03,17,14,9.10
2018,07,03,17,15,6.10
2018,07,03,17,16,3.80
2018,07,03,17,17,5.90
2018,07,03,17,18,7.90
2018,07,03,17,19,8.40
2018,07,03,17,20,7.40
2018,07,03,17,21,8.10
2018,07,03,17,22,5.80
2018,07,03,17,23,4.00
2018,07,03,17,24,5.50
2018,07,03,17,25,8.20
2018,07,03,17,26,7.30
2018,07,03,17,27,9.10
2018,07,03,17,28,8.50
2018,07,03,17,29,8.00
2018,07,03,17,30,9.70
2018,07,03,17,31,9.50
2018,07,03,17,32,7.40
2018,07,03,17,33,7.80
2018,07,03,17,34,4.50
2018,07,03,17,35,4.50
2018,07,03,17,36,4.80
2018,07,03,17,37,8.80
2018,07,03,17,38,7.00
2018,07,03,17,39,6.70
2018,07,03,17,40,4.80
2018,07,03,17,41,4.60
2018,07,03,17,42,8.90
2018,07,03,17,43,9.40
2018,07,03,17,44,6.90
2018,07,03,17,45,4.70
2018,07,03,17,46,6.60
2018,07,03,17,47,8.30
2018,07,03,17,48,10.30
2018,07,03,17,49,6.50
2018,07,03,17,50,7.60
2018,07,03,17,51,4.30
2018,07,03,17,52,6.50
2018,07,03,17,53,6.40
2018,07,03,17,54,3.70
2018,07,03,17,55,6.30
2018,07,03,17,56,5.90
2018,07,03,17,57,4.40
2018,07,03,17,58,7.30
2018,07,03,17,59,6.00
2018,07,03,18,00,6.30
2018,07,03,18,01,5.50
2018,07,03,18,02,6.20
2018,07,03,18,03,8.90
2018,07,03,18,04,3.50
2018,07,03,18,05,3.20